Location: ????????
(55.6333°N, 37.7000°E)
Time: 07:14:52
(UTC+00:00)

Landsat 4 - Pass Details

Date: 19 May 2025
Orbit: 356 x 364 km, 98.2° (Epoch: 15 June)

Event Time Altitude Azimuth Distance (km) Brightness Sun altitude
Exits shadow 22:42:19 20° 232° (SW) 932 4.5 -12.7°
Maximum altitude 22:43:16 24° 263° (W) 830 4.5 -12.6°
Drops below altitude 10° 22:45:46 10° 320° (NW) 1,396 6.3 -12.5°
Sets 22:47:58 0° 335° (NNW) 2,259 7.7 -12.4°
